Погода в Леуши

Погода в Леуши : погода сейчас, прогноз погоды и архив. Всё, что Вы хотите узнать о погоде в Леуши!

Хотите узнать прогноз погоды в Леуши? Тогда Вам сюда: Погода в Леуши

Поиск расширенной информации на нашем сайте:

Другие новости

Новости СМИ2

Главная страница сайта

Новости сайта

03.07.2017

Напоминаем, что на нашем специализированном сайте Метеоцентр.Азия вы можете получить высокодетализированные автоматические прогнозы погоды по пунктам России, СНГ и мира в авиационном формате (включающие направление и скорость ветра, видимость, явления погоды, количество и форму облачности, нижнюю и верхнюю границу облачности).

Рекомендуем: Сервисный центр ремонт компьютеров оболенск заменит материнскую плату.

Погода в Леуши - сегодня

Время (UTC), дата Ветер
(°,м/с) 
Видим.   Явления Облачность Т
(°С)
Тd
(°С)
f(%) Тe
(°С)
Pmin
(гПа)
dP
(гПа)
Po
(мм)
O2
(г/м3)
Тmin Tmax R s Состояние
почвы
06 23.07.17 120 (ЮВ) 20000 м  {ливн. осадки}  10/3 600 м верхняя 
[Sc|Ci sp]
+20.5 +15.3 72 +30  1007.6  -0.4  750  278           
09 23.07.17 170 (Ю) 20000 м  в посл. час ливневой дождь  10/5 600 м кучево-дожд., верхняя 
[Cb cap|Ci sp]
+21.4 +13.8 62 +28  1008  0.4  750  277           
12 23.07.17 тихо ()   10 км  гроза, ливневой дождь  10/10 600 м кучево-дожд. 
[Cb calv]
+18.4 +14.8 80 +27  1007.8  -0.3  750  280           
15 23.07.17 350 (С) 20000 м  {гроза, ливн. осадки}  10/8 600 м кучево-дожд., средняя, верхняя 
[Cb cap|Ac lent|Ci fib]
+19.6 +15 75 +30  1007.5  -0.3  749  279    +22.2  0.8     
18 23.07.17 340 (С) 20000 м  {гроза, ливн. осадки}  6/6 600 м 
[Sc]
+17.2 +15.1 87 +28  1006.9  -0.6  749  281           
21 23.07.17 280 (З) 20000 м    3/3 600 м 
[Sc diur, vesp]
+15.3 +14.2 93 +23  1006.1  -0.8  748  283           
00 24.07.17 050 (СВ) 20000 м    10/10 600 м 
[Sc]
+16.2 +15.4 95 +27  1006.2  0.2  749  281           
03 24.07.17 060 (СВ) 20000 м    5/5 600 м 
[Sc]
+18.1 +16.2 89 +31  1005.8  -0.3  748  279  +13.8        влажная 
06 24.07.17 060 (СВ) 20000 м    3/3 1000 м 
[Cu hum]
+23 +15.6 63 +33  1005.2  -0.5  748  275           
09 24.07.17 090 (В) 20000 м    5/5 1000 м 
[Cu Sc]
+26 +15.3 52 +35  1004.7  -0.4  748  272           
12 24.07.17 070 (В) 20000 м    6/4 600 м кучево-дожд., средняя 
[Cb cap|Ac trans]
+26.3 +14.4 48 +34  1004.2  -0.4  747  272           
15 24.07.17 210 (ЮЗ) 20000 м    10/4 600 м средняя, верхняя 
[Sc diur, vesp|Ac trans|Cc]
+21.4 +16.2 72 +32  1004.4  0.1  747  276    +27.2       
18 24.07.17 180 (Ю) 20000 м    8/8 600 м 
[Sc]
+18.9 +15.9 83 +30  1004.5  747  278           
21 24.07.17 230 (ЮЗ) 20000 м    8/8 600 м 
[Sc]
+15.8 +14.4 91 +25  1004.2  -0.4  747  282           
00 25.07.17 тихо ()   20000 м    10/10 600 м 
[Sc]
+18.2 +16.7 91 +30  1003.9  -0.3  747  278           
03 25.07.17 150 (ЮВ) 20000 м    10/0 верхняя 
[Cc]
+21.2 +17.5 79 +35  1003.7  0.1  747  275  +15.7         
06 25.07.17 050 (СВ) 20000 м    9/3 600 м средняя, верхняя 
[Cu Sc|Ac trans|Cc]
+24.8 +17.2 63 +38  1003.2  -0.4  746  272           
09 25.07.17 140 (ЮВ) 20000 м  гроза без осадков  10/6 600 м кучево-дожд., средняя, верхняя 
[Cb cap|Ac trans|Cc]
+23.8 +15.4 59 +33  1002.1  -1.2  746  273           
12 25.07.17 160 (Ю) 20000 м  гроза без осадков{ливн. осадки}  10/9 600 м кучево-дожд., верхняя 
[Cb cap|Cc]
+19.9 +16.8 82 +33  1001.9  -0.3  745  276           
15 25.07.17 тихо ()   20000 м  {гроза}  10/8 600 м кучево-дожд., средняя, верхняя 
[Cb cap|Ac lent|Ci sp]
+20.1 +16.7 81 +32  1001.7  -0.2  745  276    +26.1  0.3     
18 25.07.17 030 (СВ) 20000 м  гроза без осадков  10/10 600 м кучево-дожд. 
[Cb cap]
+18.1 +15.7 86 +30  1001.6  0.1  745  278           
21 25.07.17 140 (ЮВ) 4000 м  гроза, ливневой дождь  10/10 600 м кучево-дожд. 
[Cb cap]
+17.7 +16.5 93 +31  1001.5  0.1  745  278           
00 26.07.17 160 (Ю) 20000 м  {гроза, ливн. осадки}  10/10 600 м 
[Sc]
+16.5 +15.6 94 +28  1001.3  -0.2  745  280           
03 26.07.17 170 (Ю) 20000 м    10/10 600 м 
[Sc]
+17.4 +16.2 93 +30  1001.8  0.6  745  279  +16.5    0.7    влажная 
06 26.07.17 210 (ЮЗ) 20000 м    9/6 600 м кучево-дожд., средняя, верхняя 
[Cb cap|Ac trans|Ci fib]
+19.9 +16 78 +32  1002.1  0.3  746  277           
Время (UTC), дата Ветер
(°,м/с) 
Видим.   Явления Облачность Т
(°С)
Тd
(°С)
f(%) Тe
(°С)
Pmin
(гПа)
dP
(гПа)
Po
(мм)
O2
(г/м3)
Тmin Tmax R s Состояние
почвы

Для получения пояснительной информации подведите курсор к названию столбца.

ПОГОДА в Леуши - архив

Всё, что Вы хотите узнать о погоде в Леуши - удобно и подробно!

Выберите нужную дату (начиная с 1 января 2015* года) и нажмите кнопку "Найти".
Будут отображены архивные сводки погоды по пункту Леуши, начиная с указанной даты.


Отображать данные в формате CSV (для использования в таблицах Excel)


Внимание! Наш архив погоды предназначен исключительно для личного некоммерческого использования в познавательных целях. Если Вам необходимы официальные справки о состоянии погоды (для производственных, юридических, коммерческих и т.п. целей), обращайтесь в органы Росгидромета.

*Примечание: данная дата относится к архиву по метеостанциям СССР (Россия, СНГ, Балтия).
Архив по метеостанциям Зарубежной Европы и Азии (кроме Китая) хранится 10 дней, по другим регионам земного шара (Китай, Африка, Америка, Австралия, Океания) - 1 день.

Леуши - район местоположения метеостанции


Название, широта, долгота, высота метеостанции:
Леуши 59.6°ш. 65.7°д. 72 м над ур. моря [Российская Федерация]

Дополнительная информация

В oтличие oт бoльшинства пoгoдных сайтoв мы публикуем пoдрoбную метеoинфoрмацию в детальнoм прoфессиoнальнoм фoрмате.

Характеристики температуры и влажнoсти вoздуха измеряются на высoте 2 м в тени вдали oт зданий и деревьев.
Скoрoсть ветра измеряется на высoте 10 м (на урoвне рoста челoвека скoрoсть ветра ниже в 1.5-2 раза). Если метеoстанция нахoдится в гoрoде или в лесу, тo скoрoсть ветра занижена на 2-4 м/с пo сравнению с oткрытым местoм. Скoрoсть ветра над акватoриями крупных рек и oзёр, а также на вершинах хoлмoв на 2-5 м/с выше, чем в oбычных услoвиях.
Атмoсфернoе давление в разных тoчках местнoсти мoжет значительнo oтличаться oт давления на метеoстанции, в зависимoсти oт услoвий рельефа (при пoдъёме на 10 м давление пoнижается примернo на 1 мм рт.ст.).